Wind_Speed
8 9 9 10 12 13 15 16 18 20 22 24 25 27 28 29 30 32 33 34 35 36 36 36 35 36 36 36 36 37 37 38 39 39 40 39 37 35 32 29 28 27 27
9 10 11 13 15 16 18 20 22 24 25 27 29 30 32 33 34 35 37 38 39 40 41 41 41 41 41 40 40 40 39 38 39 40 42 42 41 40 38 36 33 31 30
11 12 14 16 18 19 21 23 25 26 28 30 32 33 35 36 38 39 40 41 42 43 44 45 46 46 46 46 45 45 44 43 42 42 43 43 43 44 43 41 39 37 35
14 15 17 18 20 21 23 25 27 29 31 32 34 36 38 39 41 42 44 45 46 47 48 49 49 50 51 51 51 50 49 48 48 47 47 46 45 45 45 45 44 42 40
16 18 19 20 22 23 25 27 30 32 34 36 38 39 41 43 44 46 47 49 50 51 52 53 54 54 55 55 55 55 55 54 53 53 52 51 50 49 48 47 47 46 45
18 20 21 22 24 26 28 31 33 35 37 39 41 43 44 46 48 49 51 52 53 55 56 57 58 59 59 60 60 60 60 59 58 58 57 57 56 55 53 51 50 49 48
20 21 23 25 27 29 31 34 36 38 40 42 44 45 47 48 50 52 54 55 57 59 60 62 63 64 64 65 65 65 65 65 64 63 63 62 61 60 59 57 55 53 51
22 24 26 28 30 33 35 37 39 41 42 44 46 47 49 51 53 55 58 60 62 64 66 67 68 70 70 71 71 71 71 70 70 69 68 67 67 66 65 63 61 59 57
25 27 29 31 33 35 37 39 41 43 44 46 48 50 53 56 59 61 64 66 68 70 71 73 74 76 77 77 78 78 78 77 76 75 74 73 72 72 70 68 67 65 62
28 30 32 34 36 38 39 41 42 44 46 49 52 55 58 61 64 67 70 72 75 77 79 81 82 84 85 86 86 87 86 85 84 82 81 79 78 77 76 74 72 71 68
30 33 35 37 38 40 41 43 45 47 49 52 55 59 62 65 68 71 74 76 79 83 86 89 92 94 96 97 98 98 97 96 94 91 89 87 85 83 81 79 78 76 74
32 35 36 38 40 41 43 45 47 50 53 55 59 62 65 68 71 73 76 80 84 88 92 97 102 105 108 109 110 111 110 108 106 102 99 96 93 90 88 85 84 81 79
34 36 38 39 42 44 46 48 50 52 55 59 62 65 68 71 73 76 79 83 88 94 99 105 109 113 115 116 117 116 115 115 113 111 109 105 102 99 96 92 90 87 85
36 37 39 41 44 46 48 50 52 55 58 62 65 68 70 73 76 79 84 90 96 101 106 110 111 110 109 108 106 105 105 106 108 110 111 110 109 107 103 100 97 94 91
37 39 41 43 45 47 50 52 55 58 61 64 67 70 72 75 78 83 89 95 101 106 108 106 102 97 93 90 89 89 89 91 94 98 103 106 109 110 109 107 104 100 98
38 41 43 45 47 49 52 54 57 60 63 66 68 71 73 77 82 88 94 100 103 103 99 93 88 85 83 82 82 83 84 85 86 88 92 96 101 105 108 109 108 106 104
40 42 44 46 48 51 53 55 58 61 64 67 69 72 76 81 86 93 98 100 99 93 87 84 81 80 80 81 81 82 83 84 85 86 87 90 93 98 103 106 109 109 108
41 43 45 47 49 51 54 56 59 62 65 67 70 74 78 84 90 96 98 96 91 85 82 80 79 79 79 80 81 82 82 83 84 85 86 87 90 92 96 101 106 108 110
42 44 46 48 50 52 54 57 59 63 65 68 72 76 81 87 93 96 95 90 84 81 78 77 77 77 78 79 78 75 72 72 74 78 82 85 87 90 93 96 102 107 110
43 45 47 49 50 52 55 58 60 63 66 69 73 78 84 90 94 94 90 84 80 77 76 75 74 75 77 76 71 66 63 63 65 67 72 78 84 87 90 94 99 105 109
44 47 49 50 51 53 55 58 61 64 67 71 75 80 86 91 93 90 85 80 77 75 74 73 74 75 73 70 66 60 56 56 58 59 62 67 74 82 88 92 97 102 107
47 49 51 52 53 54 56 59 62 65 68 72 77 82 87 91 90 86 81 77 75 73 72 72 74 74 69 65 62 59 55 49 47 48 51 57 64 74 83 90 94 99 104
49 52 54 55 55 56 58 60 63 66 69 73 78 84 88 89 87 83 78 75 73 71 71 72 74 72 66 59 57 56 55 50 41 36 37 44 55 66 76 85 90 94 100
51 55 57 58 59 59 60 62 64 68 70 74 79 84 87 87 84 80 75 73 72 71 71 72 73 69 64 57 51 49 48 46 41 31 25 30 42 57 70 79 85 90 94
53 56 60 62 62 62 62 64 66 69 72 75 80 84 86 85 81 77 73 72 71 70 70 71 71 66 60 55 49 44 40 37 35 30 21 19 30 46 62 71 78 83 87
55 58 61 64 66 65 65 66 68 70 72 76 80 84 85 83 78 74 72 71 70 70 70 70 70 65 58 51 46 42 38 34 30 26 20 16 21 35 51 63 71 77 80
Wind_Direction
5 356 346 336 327 321 316 312 310 307 305 303 301 299 298 296 295 294 293 292 290 289 287 284 282 280 279 277 276 273 271 269 267 266 264 263 261 258 255 252 248 243 241
349 337 327 320 315 313 311 309 308 307 305 304 302 301 299 297 295 293 291 290 288 287 286 284 282 280 277 275 274 273 271 269 267 265 263 262 261 259 256 253 249 246 243
327 318 314 312 312 311 311 310 309 308 307 306 304 303 301 299 297 295 292 290 288 286 284 283 281 279 277 275 273 270 269 267 266 265 263 261 260 258 257 254 251 247 245
316 314 313 313 313 313 312 312 311 310 308 306 304 303 301 299 297 295 293 291 289 286 284 282 280 278 277 275 272 270 267 265 263 262 262 260 259 258 256 254 252 249 246
316 316 316 315 315 315 314 313 311 309 307 306 304 303 301 299 298 296 294 292 289 287 285 282 280 278 276 274 272 270 267 265 262 260 259 258 257 256 255 253 252 250 247
318 317 316 316 315 314 313 311 310 308 307 307 305 304 303 301 299 297 295 293 291 288 286 283 281 278 275 273 271 269 267 265 262 260 258 256 255 254 253 252 251 249 247
316 315 314 314 313 312 311 311 310 309 309 308 306 305 303 302 300 298 297 294 292 290 288 286 283 280 277 274 272 269 267 265 262 260 257 255 254 252 251 250 249 248 247
314 314 314 314 313 313 312 312 311 311 309 308 307 306 305 304 302 301 299 297 295 293 290 288 286 283 280 277 274 271 268 265 263 260 257 255 253 251 250 248 247 246 245
315 315 315 314 313 313 312 312 312 311 311 310 309 308 308 307 305 303 301 300 298 296 293 290 287 284 282 279 276 273 269 266 263 260 257 255 253 251 248 247 245 244 244
315 315 314 314 313 313 313 313 313 313 313 312 312 311 309 308 306 304 302 301 298 296 294 292 289 286 283 280 277 274 270 267 264 260 257 254 252 250 248 246 244 242 242
315 315 315 314 314 315 315 315 316 315 315 313 312 311 309 307 306 304 302 301 299 297 295 293 290 288 285 282 279 275 272 268 264 261 257 254 252 250 248 245 243 241 240
316 315 316 315 316 317 317 317 317 316 315 313 312 310 309 307 305 304 302 301 299 297 296 294 292 289 286 283 281 278 275 271 267 262 258 255 252 249 247 245 243 241 239
317 317 317 318 318 319 319 318 317 316 314 312 311 310 308 307 306 305 303 301 300 298 296 294 291 288 286 284 282 280 277 274 269 265 260 256 252 249 246 244 242 240 238
319 319 319 320 320 320 319 318 316 315 313 312 311 310 309 308 307 306 305 303 301 299 296 293 291 289 287 285 283 280 277 273 270 266 262 258 254 250 246 243 241 239 237
322 322 322 321 321 320 318 317 316 314 313 312 311 310 310 309 309 308 307 305 303 300 298 297 294 292 289 286 283 279 276 272 268 264 260 257 253 250 246 243 240 237 236
325 324 323 322 320 319 318 317 316 315 314 313 312 312 312 312 312 311 309 307 305 304 302 301 298 296 293 289 285 281 277 272 268 263 258 254 251 248 245 242 239 236 234
327 325 324 322 321 320 319 317 316 315 315 315 314 314 315 315 314 313 311 310 309 308 307 305 303 300 297 294 290 285 280 274 269 263 258 253 248 244 241 239 237 235 233
329 327 325 323 322 321 320 319 318 317 317 317 317 317 318 317 317 316 315 314 313 312 311 309 307 304 302 299 295 290 284 277 270 263 257 252 247 242 238 235 233 232 230
332 329 327 324 323 322 321 320 320 320 320 320 320 320 320 320 320 319 318 318 317 316 314 312 311 309 306 304 300 295 289 282 274 265 257 251 245 241 236 232 230 228 227
336 333 330 327 325 323 323 322 322 322 322 322 323 323 323 323 323 322 322 321 320 319 318 316 314 313 311 309 305 301 295 289 281 271 260 251 244 239 234 230 226 225 223
341 338 334 331 328 326 325 325 325 325 325 325 325 325 326 326 326 326 325 325 324 323 322 320 319 318 316 313 310 306 302 297 289 277 263 251 242 236 232 228 224 222 220
345 343 340 336 332 330 328 327 327 327 327 327 328 328 329 329 329 329 328 328 327 326 325 324 323 323 321 318 316 313 311 306 297 285 268 251 240 232 228 225 223 220 219
347 346 345 341 337 334 332 330 330 330 330 330 330 331 331 332 332 332 331 331 330 330 329 328 328 327 325 323 320 319 319 319 313 299 277 252 237 229 225 223 221 219 217
348 348 347 345 342 338 335 334 333 333 333 332 333 333 334 335 335 334 334 333 333 333 332 332 332 330 328 326 323 322 322 324 325 317 291 259 235 226 222 220 219 217 216
348 348 348 348 345 342 339 337 336 335 335 335 335 336 337 338 337 337 337 336 336 335 335 335 335 333 331 328 325 323 323 325 327 327 313 272 239 225 220 218 217 216 216
347 347 348 348 347 345 342 340 338 338 337 337 337 339 340 340 340 339 339 339 338 338 338 338 339 337 334 330 326 324 323 324 327 327 321 291 250 229 219 216 215 215 215
Height
5880 5880 5879 5879 5878 5877 5877 5876 5875 5873 5872 5871 5870 5868 5867 5865 5864 5862 5861 5859 5858 5857 5856 5855 5855 5854 5854 5854 5854 5854 5855 5856 5857 5857 5858 5860 5862 5864 5867 5869 5870 5872 5873
5880 5879 5878 5877 5876 5875 5874 5873 5872 5870 5869 5867 5865 5864 5862 5861 5859 5857 5856 5854 5852 5851 5849 5848 5848 5847 5847 5847 5847 5847 5848 5849 5849 5849 5850 5852 5854 5856 5859 5862 5864 5866 5868
5879 5878 5877 5875 5874 5873 5871 5870 5868 5866 5864 5862 5860 5858 5856 5854 5853 5851 5849 5847 5845 5844 5842 5841 5839 5838 5838 5838 5838 5839 5840 5840 5841 5841 5842 5844 5845 5847 5850 5853 5856 5859 5861
5877 5876 5874 5873 5871 5870 5868 5866 5864 5862 5860 5857 5855 5852 5850 5848 5845 5843 5841 5839 5837 5835 5833 5832 5830 5829 5828 5827 5827 5828 5829 5830 5831 5832 5833 5834 5836 5838 5841 5843 5847 5850 5854
5875 5873 5872 5870 5868 5866 5864 5862 5860 5857 5854 5851 5849 5846 5843 5840 5837 5834 5832 5829 5827 5825 5823 5821 5820 5818 5817 5816 5815 5816 5817 5818 5820 5820 5822 5824 5825 5827 5830 5833 5836 5840 5844
5873 5871 5869 5867 5865 5862 5860 5857 5854 5851 5848 5845 5841 5838 5834 5831 5828 5825 5822 5819 5816 5813 5811 5809 5807 5805 5804 5803 5802 5802 5803 5804 5806 5807 5809 5811 5813 5815 5818 5821 5825 5829 5833
5870 5868 5865 5863 5861 5858 5855 5852 5848 5845 5841 5837 5833 5829 5825 5821 5818 5814 5810 5807 5803 5800 5797 5794 5792 5790 5788 5787 5787 5787 5787 5788 5790 5792 5794 5796 5799 5801 5804 5808 5812 5817 5821
5867 5864 5862 5859 5856 5853 5849 5845 5841 5837 5833 5829 5824 5820 5815 5811 5807 5802 5798 5794 5790 5786 5782 5778 5775 5772 5770 5769 5768 5768 5769 5770 5772 5774 5776 5779 5782 5785 5789 5794 5798 5803 5808
5863 5860 5857 5854 5850 5846 5842 5838 5833 5829 5824 5820 5815 5810 5804 5799 5794 5789 5784 5778 5773 5769 5764 5760 5756 5752 5749 5747 5746 5745 5746 5748 5750 5753 5756 5760 5763 5766 5771 5777 5782 5787 5793
5858 5855 5852 5848 5844 5840 5835 5830 5826 5821 5815 5810 5804 5799 5793 5788 5781 5775 5769 5763 5756 5750 5744 5738 5733 5729 5725 5722 5720 5719 5720 5722 5725 5729 5733 5737 5741 5745 5751 5757 5764 5770 5776
5853 5850 5846 5841 5837 5832 5827 5822 5817 5812 5806 5801 5795 5789 5782 5776 5769 5762 5754 5747 5739 5731 5722 5714 5707 5700 5695 5691 5688 5687 5688 5691 5695 5700 5706 5711 5716 5722 5729 5736 5743 5750 5758
5848 5844 5839 5834 5829 5824 5819 5814 5809 5803 5797 5791 5785 5778 5771 5764 5756 5748 5740 5731 5721 5711 5700 5689 5679 5669 5661 5656 5652 5650 5650 5653 5658 5665 5673 5680 5687 5695 5703 5712 5720 5729 5738
5842 5837 5833 5828 5822 5817 5811 5806 5800 5794 5788 5782 5775 5767 5759 5751 5743 5734 5724 5713 5702 5690 5677 5664 5651 5638 5627 5619 5614 5610 5610 5612 5617 5624 5634 5643 5653 5663 5674 5684 5695 5705 5715
5836 5831 5826 5821 5815 5809 5803 5797 5791 5785 5778 5771 5764 5756 5748 5738 5729 5718 5706 5694 5680 5665 5650 5634 5619 5606 5595 5585 5577 5573 5571 5572 5575 5581 5591 5602 5613 5627 5641 5654 5666 5678 5690
5830 5825 5819 5814 5808 5802 5796 5790 5783 5776 5769 5761 5752 5743 5734 5724 5713 5700 5686 5670 5652 5634 5616 5599 5585 5572 5562 5553 5546 5540 5537 5536 5537 5541 5549 5560 5572 5587 5603 5618 5634 5648 5662
5824 5819 5813 5807 5801 5795 5788 5781 5774 5766 5758 5749 5740 5730 5719 5708 5694 5679 5662 5643 5623 5603 5584 5568 5555 5543 5533 5524 5517 5510 5505 5503 5503 5505 5510 5520 5531 5546 5562 5580 5597 5614 5631
5819 5813 5807 5800 5794 5787 5780 5772 5765 5756 5747 5737 5727 5716 5703 5689 5674 5656 5636 5615 5594 5574 5557 5543 5530 5518 5506 5496 5487 5479 5472 5469 5468 5470 5474 5482 5493 5507 5523 5540 5558 5577 5597
5813 5807 5801 5793 5786 5779 5771 5763 5755 5745 5735 5724 5713 5700 5686 5670 5652 5632 5610 5589 5568 5550 5534 5520 5507 5494 5481 5468 5457 5448 5439 5433 5431 5433 5439 5446 5456 5470 5486 5502 5520 5540 5560
5808 5801 5794 5787 5779 5771 5762 5754 5744 5734 5723 5711 5698 5684 5668 5650 5630 5609 5587 5566 5547 5530 5514 5499 5486 5471 5457 5442 5430 5419 5408 5400 5396 5397 5401 5410 5420 5435 5451 5467 5484 5502 5523
5803 5795 5788 5780 5771 5762 5753 5743 5733 5722 5710 5697 5683 5667 5650 5631 5610 5588 5566 5546 5528 5512 5496 5481 5467 5452 5434 5417 5404 5394 5384 5373 5366 5364 5366 5374 5387 5401 5416 5432 5449 5467 5488
5797 5790 5781 5772 5763 5754 5744 5733 5722 5710 5697 5683 5668 5651 5633 5613 5591 5569 5548 5529 5512 5495 5479 5463 5447 5432 5415 5396 5382 5373 5365 5353 5341 5336 5336 5343 5354 5367 5382 5398 5416 5435 5456
5792 5784 5775 5765 5755 5745 5734 5723 5711 5698 5685 5670 5654 5636 5617 5596 5573 5552 5532 5514 5497 5480 5464 5447 5430 5413 5397 5379 5363 5351 5343 5336 5324 5313 5311 5315 5325 5337 5352 5369 5387 5407 5427
5786 5777 5768 5757 5746 5735 5724 5712 5700 5687 5672 5657 5640 5621 5601 5579 5557 5537 5517 5500 5483 5466 5450 5432 5414 5396 5380 5367 5351 5336 5323 5314 5307 5300 5292 5294 5301 5313 5328 5345 5363 5382 5402
5779 5770 5760 5749 5737 5726 5714 5701 5689 5675 5660 5644 5627 5608 5587 5565 5543 5523 5505 5487 5470 5453 5436 5419 5401 5382 5366 5354 5343 5330 5317 5304 5294 5288 5284 5282 5285 5295 5307 5323 5342 5361 5381
5773 5763 5752 5741 5729 5716 5704 5691 5678 5663 5648 5632 5614 5595 5574 5552 5531 5512 5494 5477 5459 5443 5425 5408 5390 5372 5355 5342 5331 5322 5313 5303 5292 5283 5278 5276 5277 5283 5293 5308 5326 5345 5363
5766 5756 5745 5733 5721 5707 5694 5681 5667 5653 5637 5621 5603 5583 5562 5542 5521 5502 5484 5467 5450 5433 5416 5398 5380 5363 5347 5334 5323 5313 5305 5298 5290 5282 5277 5273 5273 5275 5283 5296 5312 5329 5346